Stündliche Wetter Aahalden

Heute, 21 Juni, Montag

Zeit Temperatur Niederschläge Wind Luftdruck Luftfeuchtigkeit
00:00 +18°C° 0.2 mm 1 m/S 706 mmHg 96%
01:00 +16°C° 0.2 mm 1 m/S 706 mmHg 96%
02:00 +18°C° 0.3 mm 1 m/S 706 mmHg 96%
03:00 +18°C° 0.3 mm 1 m/S 706 mmHg 96%
04:00 +16°C° 0.3 mm 0 m/S 706 mmHg 96%
05:00 +16°C° 0.1 mm 0 m/S 706 mmHg 94%
06:00 +17°C° 0.1 mm 0 m/S 706 mmHg 93%
07:00 +18°C° 0.1 mm 0 m/S 706 mmHg 91%
08:00 +19°C° 0.1 mm 0 m/S 706 mmHg 82%
09:00 +23°C° 0.1 mm 1 m/S 706 mmHg 72%
10:00 +25°C° 0.1 mm 1 m/S 706 mmHg 62%
11:00 +25°C° 0.5 mm 1 m/S 706 mmHg 63%
12:00 +25°C° 0.5 mm 1 m/S 706 mmHg 64%
13:00 +26°C° 0.5 mm 1 m/S 706 mmHg 64%
14:00 +25°C° 1 mm 1 m/S 706 mmHg 67%
15:00 +25°C° 1 mm 1 m/S 706 mmHg 70%
16:00 +25°C° 1 mm 1 m/S 705 mmHg 73%
17:00 +23°C° 2.1 mm 1 m/S 705 mmHg 79%
18:00 +20°C° 2.1 mm 2 m/S 705 mmHg 86%
19:00 +19°C° 2.1 mm 2 m/S 705 mmHg 92%
20:00 +19°C° 1.5 mm 1 m/S 706 mmHg 93%
21:00 +18°C° 1.5 mm 1 m/S 706 mmHg 95%
22:00 +16°C° 1.5 mm 1 m/S 707 mmHg 96%
23:00 +16°C° 0.1 mm 1 m/S 707 mmHg 96%

Morgen, 22 Juni, Dienstag

Zeit Temperatur Niederschläge Wind Luftdruck Luftfeuchtigkeit
00:00 +16°C° 0.1 mm 1 m/S 707 mmHg 96%
01:00 +16°C° 0.1 mm 1 m/S 707 mmHg 96%
02:00 +15°C° 0.1 mm 1 m/S 707 mmHg 96%
03:00 +15°C° 0.1 mm 1 m/S 707 mmHg 96%
04:00 +15°C° 0.1 mm 1 m/S 707 mmHg 95%
05:00 +15°C° 0 mm 0 m/S 707 mmHg 94%
06:00 +16°C° 0 mm 0 m/S 707 mmHg 93%
07:00 +16°C° 0 mm 0 m/S 707 mmHg 92%
08:00 +20°C° 0.3 mm 1 m/S 707 mmHg 87%
09:00 +21°C° 0.3 mm 1 m/S 707 mmHg 82%
10:00 +22°C° 0.3 mm 1 m/S 707 mmHg 77%
11:00 +22°C° 0.8 mm 1 m/S 707 mmHg 78%
12:00 +21°C° 0.8 mm 2 m/S 707 mmHg 80%
13:00 +23°C° 0.8 mm 2 m/S 707 mmHg 81%
14:00 +21°C° 1.8 mm 2 m/S 708 mmHg 83%
15:00 +21°C° 1.8 mm 2 m/S 708 mmHg 86%
16:00 +20°C° 1.8 mm 2 m/S 708 mmHg 89%
17:00 +19°C° 2.3 mm 2 m/S 708 mmHg 91%
18:00 +18°C° 2.3 mm 2 m/S 709 mmHg 94%
19:00 +18°C° 2.3 mm 1 m/S 709 mmHg 97%
20:00 +18°C° 1.5 mm 1 m/S 710 mmHg 97%
21:00 +16°C° 1.5 mm 1 m/S 710 mmHg 97%
22:00 +16°C° 1.5 mm 1 m/S 711 mmHg 98%
23:00 +16°C° 0.1 mm 1 m/S 711 mmHg 97%

übermorgen, 23 Juni, Mittwoch

Zeit Temperatur Niederschläge Wind Luftdruck Luftfeuchtigkeit
00:00 +16°C° 0.1 mm 1 m/S 711 mmHg 96%
01:00 +14°C° 0.1 mm 0 m/S 711 mmHg 96%
02:00 +14°C° 0 mm 0 m/S 711 mmHg 96%
03:00 +15°C° 0 mm 1 m/S 711 mmHg 96%
04:00 +15°C° 0 mm 1 m/S 711 mmHg 95%
05:00 +16°C° 0 mm 1 m/S 711 mmHg 94%
06:00 +16°C° 0 mm 1 m/S 711 mmHg 92%
07:00 +18°C° 0 mm 1 m/S 711 mmHg 90%
08:00 +20°C° 0 mm 1 m/S 711 mmHg 80%
09:00 +21°C° 0 mm 2 m/S 711 mmHg 70%
10:00 +23°C° 0 mm 2 m/S 711 mmHg 60%
11:00 +24°C° 0.1 mm 3 m/S 711 mmHg 57%
12:00 +25°C° 0.1 mm 3 m/S 711 mmHg 55%
13:00 +26°C° 0.1 mm 4 m/S 711 mmHg 52%
14:00 +25°C° 0.1 mm 3 m/S 711 mmHg 56%
15:00 +25°C° 0.1 mm 3 m/S 711 mmHg 60%
16:00 +24°C° 0.1 mm 3 m/S 710 mmHg 64%
17:00 +22°C° 0.1 mm 3 m/S 710 mmHg 69%
18:00 +21°C° 0.1 mm 3 m/S 710 mmHg 74%
19:00 +20°C° 0.1 mm 3 m/S 709 mmHg 79%
20:00 +19°C° 1.6 mm 3 m/S 710 mmHg 84%
21:00 +17°C° 1.6 mm 2 m/S 710 mmHg 89%
22:00 +16°C° 1.6 mm 1 m/S 710 mmHg 94%
23:00 +16°C° 0.7 mm 1 m/S 711 mmHg 95%

24 Juni, Donnerstag

Zeit Temperatur Niederschläge Wind Luftdruck Luftfeuchtigkeit
00:00 +15°C° 0.7 mm 1 m/S 711 mmHg 95%
01:00 +15°C° 0.7 mm 1 m/S 712 mmHg 96%
02:00 +15°C° 0 mm 1 m/S 712 mmHg 95%
03:00 +14°C° 0 mm 1 m/S 711 mmHg 94%
04:00 +14°C° 0 mm 1 m/S 711 mmHg 94%
05:00 +14°C° 0 mm 0 m/S 711 mmHg 92%
06:00 +14°C° 0 mm 0 m/S 711 mmHg 91%
07:00 +15°C° 0 mm 0 m/S 711 mmHg 90%
08:00 +17°C° 0.2 mm 0 m/S 711 mmHg 83%
09:00 +20°C° 0.2 mm 1 m/S 711 mmHg 76%
10:00 +22°C° 0.2 mm 1 m/S 712 mmHg 70%
11:00 +22°C° 0.3 mm 1 m/S 711 mmHg 67%
12:00 +23°C° 0.3 mm 1 m/S 711 mmHg 64%
13:00 +24°C° 0.3 mm 1 m/S 711 mmHg 61%
14:00 +23°C° 1 mm 1 m/S 711 mmHg 68%
15:00 +22°C° 1 mm 1 m/S 711 mmHg 74%
16:00 +22°C° 1 mm 1 m/S 710 mmHg 81%
17:00 +19°C° 7.4 mm 2 m/S 711 mmHg 86%
18:00 +17°C° 7.4 mm 2 m/S 711 mmHg 91%
19:00 +14°C° 7.4 mm 3 m/S 712 mmHg 97%
20:00 +14°C° 1.9 mm 2 m/S 712 mmHg 96%
21:00 +14°C° 1.9 mm 2 m/S 712 mmHg 95%
22:00 +14°C° 1.9 mm 1 m/S 712 mmHg 93%
23:00 +13°C° 0 mm 1 m/S 712 mmHg 93%

25 Juni, Freitag

Zeit Temperatur Niederschläge Wind Luftdruck Luftfeuchtigkeit
00:00 +13°C° 0 mm 1 m/S 712 mmHg 92%
01:00 +12°C° 0 mm 1 m/S 712 mmHg 92%
02:00 +12°C° 0 mm 1 m/S 712 mmHg 92%
03:00 +12°C° 0 mm 1 m/S 712 mmHg 92%
04:00 +12°C° 0 mm 1 m/S 712 mmHg 92%
05:00 +12°C° 0 mm 0 m/S 712 mmHg 90%
06:00 +13°C° 0 mm 0 m/S 712 mmHg 88%
07:00 +14°C° 0 mm 0 m/S 712 mmHg 86%
08:00 +16°C° 0 mm 0 m/S 713 mmHg 79%
09:00 +19°C° 0 mm 1 m/S 713 mmHg 72%
10:00 +21°C° 0 mm 1 m/S 713 mmHg 64%
11:00 +22°C° 0.1 mm 1 m/S 713 mmHg 63%
12:00 +22°C° 0.1 mm 1 m/S 712 mmHg 61%
13:00 +23°C° 0.1 mm 2 m/S 712 mmHg 59%
14:00 +21°C° 0.8 mm 2 m/S 712 mmHg 67%
15:00 +21°C° 0.8 mm 2 m/S 712 mmHg 74%
16:00 +20°C° 0.8 mm 2 m/S 712 mmHg 82%
17:00 +20°C° 1.1 mm 1 m/S 712 mmHg 85%
18:00 +19°C° 1.1 mm 1 m/S 712 mmHg 88%
19:00 +19°C° 1.1 mm 1 m/S 712 mmHg 91%
20:00 +18°C° 0.4 mm 1 m/S 712 mmHg 92%
21:00 +16°C° 0.4 mm 1 m/S 713 mmHg 94%
22:00 +15°C° 0.4 mm 1 m/S 713 mmHg 95%
23:00 +14°C° 0.2 mm 1 m/S 713 mmHg 95%

26 Juni, Samstag

Zeit Temperatur Niederschläge Wind Luftdruck Luftfeuchtigkeit
00:00 +14°C° 0.2 mm 1 m/S 713 mmHg 95%
01:00 +14°C° 0.2 mm 1 m/S 713 mmHg 96%
02:00 +14°C° 0 mm 1 m/S 713 mmHg 96%
03:00 +14°C° 0 mm 1 m/S 713 mmHg 95%
04:00 +13°C° 0 mm 0 m/S 713 mmHg 95%
05:00 +13°C° 0 mm 0 m/S 713 mmHg 94%
06:00 +14°C° 0 mm 0 m/S 713 mmHg 93%
07:00 +15°C° 0 mm 0 m/S 714 mmHg 92%
08:00 +16°C° 0.1 mm 0 m/S 714 mmHg 85%
09:00 +20°C° 0.1 mm 1 m/S 714 mmHg 78%
10:00 +22°C° 0.1 mm 1 m/S 714 mmHg 70%
11:00 +22°C° 0.5 mm 1 m/S 714 mmHg 71%
12:00 +22°C° 0.5 mm 1 m/S 714 mmHg 72%
13:00 +21°C° 0.5 mm 2 m/S 714 mmHg 72%
14:00 +23°C° 0.5 mm 1 m/S 714 mmHg 72%
15:00 +23°C° 0.5 mm 1 m/S 714 mmHg 71%
16:00 +23°C° 0.5 mm 1 m/S 713 mmHg 71%
17:00 +22°C° 0.6 mm 1 m/S 713 mmHg 76%
18:00 +21°C° 0.6 mm 1 m/S 713 mmHg 81%
19:00 +20°C° 0.6 mm 1 m/S 713 mmHg 86%
20:00 +19°C° 0 mm 1 m/S 713 mmHg 89%
21:00 +16°C° 0 mm 1 m/S 714 mmHg 91%
22:00 +15°C° 0 mm 1 m/S 714 mmHg 93%
23:00 +14°C° 0 mm 1 m/S 714 mmHg 94%
Mehr zeigen

Wir brauchen deine Erlaubnis

Meteoprog und unser Service Anbieter werden persönliche Daten aufbewahren, so wie Cookies, Geräte Bezeichnung oder ähnliche Technologien von deinem Gerät und Prozess, so wie Persönliche Daten Inhalte und Werbungen, genauso wie social Media und den Verkehr zu analysieren.

  • Aufbewahrung und/oder Zugang zu deiner Geräte Informationen.

    Cookies, Geräte Bezeichnung oder andere Informationen, können aufbewahrt oder Zugang zu deinem Gerät erhalten, für den Grund, der oben angegeben wird.

  • Personalisierte Werbung und Inhalte, Messungen, Einblick in das Publikum und Produkt Entwicklung.

    Werbungen und Inhalte können personalisiert werden, basierend auf ein Profil. Mehr Daten können besser personalisierte Werbungen und Inhalte hinzufügen. Werbung und Inhalte können gezeigt und gemessen werden. Einblicke über das Publikum, welche die Werbung gesehen haben und den Inhalt, können abgeleitet werden. So wie Daten können genutzt werden, um es zu verbessern oder die Benutzer Erfahrung zu verbessern das System und die Software.

Wenn du “Ich stimme zu” klickst, erlaubst du uns, die Cookies zu benutzen die Geräte Bezeichnung, den Web oder ähnliche Technologien zu benutzen. Deine Settings, können in deinem Gerät bei deinem Browser geändert werden.

Für den bestimmten Zweck, berechtigten Interessen beruhen darauf, mehr als auf den Inhalt. Du kannst mehr darüber in unseren Privaten und Cookie Politik lesen.